Chattanooga, TN

3:04 AM EDT on May 23, 2018 (GMT -0400)
Lovell

Weather History for KCHA - April, 2013

Change the Weather History Date:

Monday, April 29, 2013

  Actual Average Record
Temperature  
Mean Temperature 65 °F 64 °F  
Max Temperature 73 °F 76 °F 89 °F (2017)
Min Temperature 56 °F 52 °F 33 °F (1992)
Degree Days  
Heating Degree Days 0 3  
Month to date heating degree days 163 172  
Since 1 July heating degree days 3030 3198  
Cooling Degree Days 0 2  
Month to date cooling degree days 34 38  
Year to date cooling degree days 39 45  
Growing Degree Days 15 (Base 50)    
Moisture  
Dew Point 55 °F    
Average Humidity 71    
Maximum Humidity 93    
Minimum Humidity 49    
Precipitation  
Precipitation 0.00 in 0.13 in 2.03 in (1963)
Month to date precipitation 9.09 3.87  
Year to date precipitation 27.48 18.60  
Snow  
Snow 0.00 in 0.00 in - ()
Month to date snowfall 0.0 0.1  
Since 1 July snowfall 0.3 3.9  
Snow Depth 0.00 in    
Sea Level Pressure  
Sea Level Pressure 29.99 in    
Wind  
Wind Speed 2 mph (SSE)    
Max Wind Speed 7 mph    
Max Gust Speed 10 mph    
Visibility 9 miles    
Events      
T = Trace of Precipitation, MM = Missing Value Source: NWS Daily Summary

Daily Weather History Graph

Daily Weather History Graph

Search for Another Location

Airport or City:

Astronomy

Apr. 29, 2013 Rise Set
Actual Time 6:51 AM EDT 8:24 PM EDT
Civil Twilight 6:24 AM EDT 8:51 PM EDT
Nautical Twilight 5:52 AM EDT 9:24 PM EDT
Astronomical Twilight 5:18 AM EDT 9:58 PM EDT
Moon No Moon Rise 10:15 AM EDT (4/29)
Length of Visible Light 14h 27m
Length of Day
13h 33m
Waning Gibbous, 80% of the Moon is Illuminated
Apr 29
Waning Gibbous
May 2
Last Quarter
May 9
New
May 18
First Quarter
May 25
Full

Hourly Weather History & Observations

Time (EDT) Temp. Dew Point Humidity Pressure Visibility Wind Dir Wind Speed Gust Speed Precip Events Conditions
12:00 AM 57.2 °F 55.4 °F 94% 30.00 in 10.0 mi Calm Calm - N/A   Mostly Cloudy
12:17 AM 57.2 °F 57.2 °F 100% 30.00 in 10.0 mi Calm Calm - N/A   Overcast
12:53 AM 57.9 °F 55.9 °F 93% 29.99 in 10.0 mi Calm Calm - N/A   Overcast
1:14 AM 59.0 °F 55.4 °F 88% 30.01 in 10.0 mi Calm Calm - N/A   Overcast
1:41 AM 59.0 °F 57.2 °F 94% 30.01 in 10.0 mi Calm Calm - N/A   Overcast
1:50 AM 59.0 °F 55.4 °F 88% 30.01 in 10.0 mi Calm Calm - N/A   Overcast
1:53 AM 59.0 °F 55.9 °F 90% 30.00 in 10.0 mi Calm Calm - N/A   Overcast
2:09 AM 57.2 °F 55.4 °F 94% 30.01 in 10.0 mi Calm Calm - N/A   Overcast
2:53 AM 57.9 °F 55.9 °F 93% 29.99 in 10.0 mi SSE 3.5 mph - N/A   Overcast
3:53 AM 57.9 °F 55.9 °F 93% 29.99 in 10.0 mi SSE 3.5 mph - N/A   Overcast
4:53 AM 57.9 °F 55.9 °F 93% 29.99 in 10.0 mi South 4.6 mph - N/A   Overcast
5:45 AM 59.0 °F 55.4 °F 88% 30.00 in 6.0 mi SSE 3.5 mph - N/A   Overcast
5:53 AM 57.9 °F 55.9 °F 93% 29.99 in 6.0 mi Calm Calm - N/A   Overcast
6:53 AM 57.9 °F 55.9 °F 93% 30.01 in 6.0 mi Calm Calm - N/A   Overcast
7:53 AM 59.0 °F 55.9 °F 90% 30.02 in 6.0 mi Calm Calm - N/A   Overcast
8:29 AM 59.0 °F 55.4 °F 88% 30.04 in 6.0 mi SE 3.5 mph - N/A   Mostly Cloudy
8:50 AM 59.0 °F 55.4 °F 88% 30.04 in 6.0 mi SSE 5.8 mph - N/A   Mostly Cloudy
8:53 AM 59.0 °F 55.9 °F 90% 30.03 in 6.0 mi South 4.6 mph - N/A   Mostly Cloudy
9:53 AM 62.1 °F 57.0 °F 84% 30.03 in 10.0 mi SSE 4.6 mph - N/A   Mostly Cloudy
10:53 AM 64.0 °F 54.0 °F 70% 30.03 in 10.0 mi SSE 3.5 mph - N/A   Mostly Cloudy
11:28 AM 64.4 °F 55.4 °F 73% 30.04 in 10.0 mi SE 4.6 mph - N/A   Scattered Clouds
11:53 AM 66.9 °F 54.0 °F 63% 30.03 in 10.0 mi Calm Calm - N/A   Scattered Clouds
12:53 PM 68.0 °F 53.1 °F 59% 30.02 in 10.0 mi Calm Calm - N/A   Mostly Cloudy
1:53 PM 70.0 °F 52.0 °F 53% 30.00 in 10.0 mi Calm Calm - N/A   Mostly Cloudy
2:53 PM 71.1 °F 51.1 °F 49% 29.98 in 10.0 mi Calm Calm - N/A   Mostly Cloudy
3:53 PM 72.0 °F 51.1 °F 48% 29.96 in 10.0 mi Calm Calm - N/A   Mostly Cloudy
4:53 PM 72.0 °F 52.0 °F 49% 29.95 in 10.0 mi Calm Calm - N/A   Mostly Cloudy
5:53 PM 72.0 °F 52.0 °F 49% 29.93 in 10.0 mi SSW 4.6 mph - N/A   Scattered Clouds
6:53 PM 72.0 °F 51.1 °F 48% 29.93 in 10.0 mi South 3.5 mph - N/A   Partly Cloudy
7:53 PM 71.1 °F 52.0 °F 51% 29.93 in 10.0 mi South 3.5 mph - N/A   Partly Cloudy
8:53 PM 66.9 °F 54.0 °F 63% 29.94 in 10.0 mi Calm Calm - N/A   Partly Cloudy
9:53 PM 61.0 °F 55.9 °F 83% 29.97 in 10.0 mi Calm Calm - N/A   Partly Cloudy
10:53 PM 60.1 °F 55.0 °F 83% 29.99 in 10.0 mi Calm Calm - N/A   Clear
11:53 PM 57.9 °F 55.0 °F 90% 29.97 in 10.0 mi Calm Calm - N/A   Clear